Home > Weather > Oslo > Past weeks

Flag for Norway Weather for the Past 2 Weeks in Oslo, Norway

Now
37 °F

Chilly.


Feels Like: 34 °F
Forecast: 35 / 51 °F
Wind: 3 mph from Northeast

Location: Oslo-Blindern

Current Time: Apr 30, 2016 at 12:05:22 PM

Latest Report: Apr 30, 2016 at 9:00 AM


Visibility: N/A

Pressure: 30.11 "Hg

Humidity: 92%

Dew Point: 35 °F

Location of OsloLocation

Historic Weather in Oslo — Graph

°F

Oslo Temperature Yesterday

Maximum temperature yesterday: 48 °F (at 11:00 AM)
Minimum temperature yesterday: 35 °F (at 7:00 AM)
Average temperature yesterday: 43 °F

High & Low Weather Summary for the Past Weeks

 TemperatureHumidityPressure
High57 °F (Apr 19, 4:00 PM)98% (Apr 29, 7:00 AM)30.21 "Hg (Apr 29, 7:00 AM)
Low33 °F (Apr 25, 3:00 AM)25% (Apr 21, 6:00 PM)29.38 "Hg (Apr 18, 6:00 PM)
Average44 °F59%29.74 "Hg
* Reported Apr 15 1:00 PM — Apr 30 9:00 AM, Oslo, Weather by CustomWeather, © 2016

Note: Actual official high and low records may vary slightly from our data, if they occured in-between our weather recording intervals... More about our weather records

Advertising

Oslo Weather History for the Previous 24 Hours

Scroll right to see more
 ConditionsComfort  
Time TempWeatherWind HumidityBarometerVisibility
9:00 AM
Sat, Apr 30
37 °FChilly.3 mph92%30.11 "HgN/A
8:00 AM35 °FOvercast.3 mph94%30.10 "Hg9 mi
7:00 AM34 °FChilly.2 mph96%30.09 "HgN/A
6:00 AM34 °FChilly.2 mph96%30.08 "HgN/A
3:00 AM38 °FChilly.2 mph92%30.06 "HgN/A
2:00 AM38 °FChilly.3 mph92%30.04 "HgN/A
1:00 AM40 °FChilly.6 mph90%30.03 "HgN/A
12:00 AM43 °FQuite cool.3 mph78%29.99 "HgN/A
11:00 PM
Fri, Apr 29
42 °FQuite cool.2 mph81%30.00 "HgN/A
10:00 PM42 °FQuite cool.2 mph84%30.01 "HgN/A
9:00 PM44 °FQuite cool.5 mph72%30.01 "HgN/A
8:00 PM46 °FOvercast.2 mph67%29.98 "Hg31 mi
7:00 PM46 °FCool.2 mph73%29.98 "HgN/A
6:00 PM41 °FQuite cool.2 mph88%29.98 "HgN/A
5:00 PM46 °FOvercast.5 mph63%29.96 "Hg34 mi
4:00 PM46 °FCool.6 mph62%29.95 "HgN/A
3:00 PM47 °FCool.7 mph56%29.94 "HgN/A
2:00 PM46 °FCool.9 mph57%29.91 "HgN/A
1:00 PM47 °FCool.9 mph59%29.86 "HgN/A
12:00 PM48 °FCool.9 mph61%29.82 "HgN/A
Weather by CustomWeather, © 2016

See weather overviewHow to use our weather pages